sat.trackr.live / text

‹ back to catalog

STARLINK-36343

NORAD 67816 · 2026-032V

PAYLOAD ACTIVE UNKNOWN

§ Identity

Operator
Country
US
Launch date
2026-02-15
Launch site
AFWTR
Launch vehicle
Mass (kg)
RCS (m²)

Purposes: comms

External: N2YO · Heavens-Above · Gunter

§ Orbital elements

Epoch: 2026-09-19T17:55:15.729312Z

Period
93.91 min
Inclination
97.2853°
Eccentricity
0.0001792
Mean motion
15.33455581 rev/d
Perigee alt
464.3 km
Apogee alt
466.7 km
Semi-major
6,843.6 km
B*
4.7102e-4
RAAN
89.2220°
Arg perigee
94.8252°
Mean anomaly
265.3196°
Rev number
3,470

§ Raw data

STARLINK-363431 67816U 26032V   26262.74670983  .00015167  00000+0  47102-3 0  99992 67816  97.2853  89.2220 0001792  94.8252 265.3196 15.33455581 34702

JSON: /api/v1/satellites/67816 · /tle

For live sub-satellite position, see the globe view (requires WebGL).

§ Visibility from observer

Set your observer location to see the next 7 days of passes ≥ 10°. The values pass through the URL so the page stays shareable.

No JS? Fill the form by hand. The geolocation button needs JavaScript.